Seretse Khama, Botswana

5:26 PM CAT on June 23, 2017 (GMT +0200)
Seretse Khama

Weather History for FBSK - January, 2013

Change the Weather History Date:

Saturday, January 19, 2013

  Actual Average Record
Temperature  
Mean Temperature 72 °F -  
Max Temperature 77 °F 86 °F 95 °F (1999)
Min Temperature 68 °F 65 °F 57 °F (2000)
Cooling Degree Days 8    
Growing Degree Days 22 (Base 50)    
Moisture  
Dew Point 67 °F    
Average Humidity 89    
Maximum Humidity 94    
Minimum Humidity 74    
Precipitation  
Precipitation 0.00 in - - ()
Sea Level Pressure  
Sea Level Pressure 29.89 in    
Wind  
Wind Speed 5 mph ()    
Max Wind Speed 10 mph    
Max Gust Speed -    
Visibility 6.2 miles    
Events Rain , Thunderstorm    
Averages and records for this station are not official NWS values.
T = Trace of Precipitation, MM = Missing Value Source: Averaged Metar Reports

Daily Weather History Graph

Daily Weather History Graph

Search for Another Location

Airport or City:

Trip Planner

Search our weather history database for the weather conditions in past years. The results will help you decide how hot, cold, wet, or windy it might be!

Date:

Astronomy

Jan. 19, 2013 Rise Set
Actual Time 5:44 AM CAT 7:09 PM CAT
Civil Twilight 5:19 AM CAT 7:34 PM CAT
Nautical Twilight 4:49 AM CAT 8:04 PM CAT
Astronomical Twilight 4:18 AM CAT 8:35 PM CAT
Moon 12:55 PM CAT (1/19) No Moon Set
Length of Visible Light 14h 15m
Length of Day
13h 25m
First Quarter, 54% of the Moon is Illuminated
Jan 19
First Quarter
Jan 27
Full
Feb 3
Last Quarter
Feb 10
New
Feb 17
First Quarter

Hourly Weather History & Observations

Time (CAT) Temp. Dew Point Humidity Pressure Visibility Wind Dir Wind Speed Gust Speed Precip Events Conditions
12:00 AM 68.0 °F 66.2 °F 94% 29.95 in 6.2 mi ENE 3.5 mph - N/A   Mostly Cloudy
1:00 AM 68.0 °F 64.4 °F 88% 29.95 in 6.2 mi Calm Calm - N/A   Mostly Cloudy
2:00 AM 68.0 °F 64.4 °F 88% 29.92 in 6.2 mi NE 4.6 mph - N/A   Mostly Cloudy
4:00 AM 68.0 °F 66.2 °F 94% 29.89 in 6.2 mi ENE 4.6 mph - N/A   Mostly Cloudy
5:00 AM 68.0 °F 66.2 °F 94% 29.89 in 6.2 mi NNE 6.9 mph - N/A   Mostly Cloudy
6:00 AM 68.0 °F 66.2 °F 94% 29.92 in 6.2 mi East 5.8 mph - N/A   Overcast
7:00 AM 68.0 °F 66.2 °F 94% 29.92 in 6.2 mi ESE 5.8 mph - N/A   Overcast
8:00 AM 68.0 °F 66.2 °F 94% 29.95 in 6.2 mi East 6.9 mph - N/A   Overcast
9:00 AM 69.8 °F 68.0 °F 94% 29.95 in 6.2 mi ESE 6.9 mph - N/A   Overcast
10:00 AM 71.6 °F 66.2 °F 83% 29.95 in 6.2 mi East 6.9 mph - N/A   Overcast
11:00 AM 75.2 °F 68.0 °F 78% 29.92 in 6.2 mi East 9.2 mph - N/A   Overcast
12:00 PM 77.0 °F 68.0 °F 74% 29.92 in 6.2 mi East 9.2 mph - N/A   Overcast
2:00 PM 73.4 °F 68.0 °F 83% 29.86 in 6.2 mi ESE 10.4 mph - N/A Thunderstorm Thunderstorm
3:00 PM 71.6 °F 68.0 °F 88% 29.83 in 6.2 mi SE 9.2 mph - N/A Thunderstorm Thunderstorm
4:00 PM 73.4 °F 68.0 °F 83% 29.83 in 6.2 mi SSE 8.1 mph - N/A   Partly Cloudy
5:00 PM 71.6 °F 68.0 °F 88% 29.83 in 6.2 mi SSE 8.1 mph - N/A   Partly Cloudy
6:00 PM 71.6 °F 68.0 °F 88% 29.83 in 6.2 mi SSE 9.2 mph - N/A Rain Light Rain
7:00 PM 71.6 °F 68.0 °F 88% 29.83 in 6.2 mi South 9.2 mph - N/A Rain Light Rain
8:00 PM 71.6 °F 68.0 °F 88% 29.86 in 6.2 mi SSE 8.1 mph - N/A   Partly Cloudy
9:00 PM 69.8 °F 68.0 °F 94% 29.86 in 6.2 mi SE 5.8 mph - N/A   Scattered Clouds
10:00 PM 69.8 °F 68.0 °F 94% 29.89 in 6.2 mi ESE 8.1 mph - N/A   Scattered Clouds
11:00 PM 69.8 °F 66.2 °F 88% 29.89 in 6.2 mi ESE 8.1 mph - N/A   Scattered Clouds